sat.trackr.live / text

‹ back to catalog

UNKNOWN

NORAD 82560

UNKNOWN UNKNOWN UNKNOWN

§ Identity

Operator
Country
Launch date
Launch site
Launch vehicle
Mass (kg)
RCS (m²)

External: N2YO · Heavens-Above

§ Orbital elements

Epoch: 2026-05-23T15:40:03.914976Z

Period
103.52 min
Inclination
100.0018°
Eccentricity
0.0008761
Mean motion
13.91086774 rev/d
Perigee alt
918.4 km
Apogee alt
931.2 km
Semi-major
7,303.0 km
B*
6.6187e-4
RAAN
103.3648°
Arg perigee
240.4006°
Mean anomaly
299.2104°
Rev number
63,437

§ Raw data

UNKNOWN1 82560U          26143.65282309  .00000781  00000+0  66187-3 0  99982 82560 100.0018 103.3648 0008761 240.4006 299.2104 13.91086774634372

JSON: /api/v1/satellites/82560 · /tle

For live sub-satellite position, see the globe view (requires WebGL).

§ Visibility from observer

Set your observer location to see the next 7 days of passes ≥ 10°. The values pass through the URL so the page stays shareable.

No JS? Fill the form by hand. The geolocation button needs JavaScript.